{"data":{"norad_id":47719,"epoch":"2026-05-24T01:37:17.869152Z","epoch_age_seconds":155294,"freshness":"FRESH","line1":"1 47719U 21016A   26144.06756793 -.00000118  00000+0  00000+0 0  9997","line2":"2 47719  63.2351  61.1234 7279642 269.8294  14.7586  2.00630669 38301","mean_motion":2.00630669,"eccentricity":0.7279642,"inclination_deg":63.2351,"raan_deg":61.1234,"arg_perigee_deg":269.8294,"mean_anomaly_deg":14.7586,"bstar":0,"rev_number":3830,"period_min":717.73672847594,"perigee_km":845.61822402483,"apogee_km":39506.964948633,"semimajor_km":26554.428586329,"source":"CELESTRAK","updated_at":"2026-05-25T13:38:12.250932Z"}}